• In Czech Republic
  • List of Countries
  • For 7 days
  • Water Temperature
  • Satellite Maps
  • Weather Map
  • Weather Widgets
  • user-avatar
    Login

    Hourly Weather Louvain-la-Neuve

    Today, 13 December, Wednesday

    Time Temperature Precipitation Wind Pressure Humidity
    00:00 -1°C° 0 mm 5 mps 750 mmHg 90%
    01:00 -1°C° 0 mm 6 mps 749 mmHg 90%
    02:00 -1°C° 0 mm 6 mps 749 mmHg 89%
    03:00 -1°C° 0 mm 7 mps 748 mmHg 88%
    04:00 0°C° 0.1 mm 8 mps 747 mmHg 87%
    05:00 0°C° 0.1 mm 8 mps 746 mmHg 86%
    06:00 0°C° 0 mm 8 mps 746 mmHg 85%
    07:00 0°C° 1.1 mm 8 mps 745 mmHg 85%
    08:00 +1°C° 1.1 mm 9 mps 744 mmHg 85%
    09:00 +1°C° 1.1 mm 10 mps 743 mmHg 84%
    10:00 +1°C° 1.2 mm 9 mps 742 mmHg 86%
    11:00 +2°C° 1.2 mm 9 mps 742 mmHg 87%
    12:00 +2°C° 1.2 mm 8 mps 741 mmHg 89%
    13:00 +4°C° 0.7 mm 8 mps 740 mmHg 90%
    14:00 +4°C° 0.7 mm 7 mps 740 mmHg 90%
    15:00 +5°C° 0.7 mm 7 mps 739 mmHg 91%
    16:00 +5°C° 0.5 mm 8 mps 738 mmHg 89%
    17:00 +5°C° 0.5 mm 9 mps 736 mmHg 87%
    18:00 +5°C° 0.5 mm 10 mps 735 mmHg 85%
    19:00 +5°C° 2.6 mm 9 mps 735 mmHg 84%
    20:00 +5°C° 2.6 mm 9 mps 734 mmHg 83%
    21:00 +5°C° 2.6 mm 8 mps 734 mmHg 83%
    22:00 +4°C° 0.2 mm 7 mps 734 mmHg 82%
    23:00 +3°C° 0.2 mm 6 mps 735 mmHg 82%

    Tomorrow, 14 December, Thursday

    Time Temperature Precipitation Wind Pressure Humidity
    00:00 +2°C° 0.2 mm 5 mps 735 mmHg 82%
    01:00 +2°C° 1.2 mm 6 mps 735 mmHg 78%
    02:00 +1°C° 1.2 mm 8 mps 736 mmHg 74%
    03:00 +1°C° 1.2 mm 9 mps 736 mmHg 70%
    04:00 0°C° 0 mm 8 mps 737 mmHg 70%
    05:00 0°C° 0 mm 7 mps 738 mmHg 71%
    06:00 -1°C° 0 mm 6 mps 738 mmHg 72%
    07:00 0°C° 0.1 mm 7 mps 739 mmHg 73%
    08:00 0°C° 0.1 mm 7 mps 739 mmHg 75%
    09:00 +2°C° 0.1 mm 7 mps 739 mmHg 77%
    10:00 +2°C° 0.5 mm 7 mps 738 mmHg 77%
    11:00 +2°C° 0.5 mm 7 mps 738 mmHg 77%
    12:00 +3°C° 0.5 mm 7 mps 738 mmHg 78%
    13:00 +3°C° 0.4 mm 7 mps 737 mmHg 78%
    14:00 +3°C° 0.4 mm 6 mps 736 mmHg 79%
    15:00 +3°C° 0.4 mm 5 mps 736 mmHg 79%
    16:00 +2°C° 0.3 mm 5 mps 735 mmHg 82%
    17:00 +2°C° 0.3 mm 5 mps 735 mmHg 84%
    18:00 +3°C° 0.3 mm 4 mps 735 mmHg 86%
    19:00 +1°C° 0.1 mm 4 mps 735 mmHg 85%
    20:00 +1°C° 0.1 mm 4 mps 735 mmHg 84%
    21:00 +1°C° 0.1 mm 4 mps 735 mmHg 83%
    22:00 0°C° 0 mm 4 mps 735 mmHg 83%
    23:00 0°C° 0 mm 4 mps 735 mmHg 83%

    Day after tomorrow, 15 December, Friday

    Time Temperature Precipitation Wind Pressure Humidity
    00:00 0°C° 0 mm 4 mps 736 mmHg 83%
    01:00 0°C° 0 mm 4 mps 735 mmHg 84%
    02:00 0°C° 0 mm 5 mps 735 mmHg 84%
    03:00 0°C° 0 mm 5 mps 735 mmHg 85%
    04:00 0°C° 0.1 mm 5 mps 735 mmHg 86%
    05:00 0°C° 0.1 mm 5 mps 735 mmHg 88%
    06:00 +1°C° 0.1 mm 5 mps 735 mmHg 89%
    07:00 +1°C° 0.1 mm 5 mps 736 mmHg 90%
    08:00 +1°C° 0.1 mm 4 mps 736 mmHg 90%
    09:00 +1°C° 0.1 mm 4 mps 737 mmHg 91%
    10:00 +3°C° 0 mm 4 mps 737 mmHg 89%
    11:00 +3°C° 0 mm 4 mps 737 mmHg 86%
    12:00 +4°C° 0 mm 4 mps 737 mmHg 84%
    13:00 +4°C° 0.1 mm 3 mps 738 mmHg 86%
    14:00 +4°C° 0.1 mm 2 mps 738 mmHg 88%
    15:00 +4°C° 0.1 mm 2 mps 738 mmHg 90%
    16:00 +3°C° 0 mm 2 mps 739 mmHg 91%
    17:00 +3°C° 0 mm 2 mps 740 mmHg 93%
    18:00 +2°C° 0 mm 2 mps 741 mmHg 94%
    19:00 +2°C° 0 mm 2 mps 741 mmHg 94%
    20:00 +2°C° 0 mm 2 mps 742 mmHg 94%
    21:00 +1°C° 0 mm 2 mps 743 mmHg 94%
    22:00 +1°C° 0 mm 2 mps 743 mmHg 93%
    23:00 +1°C° 0 mm 2 mps 744 mmHg 92%

    16 December, Saturday

    Time Temperature Precipitation Wind Pressure Humidity
    00:00 +1°C° 0 mm 2 mps 744 mmHg 91%
    01:00 +1°C° 0.1 mm 3 mps 745 mmHg 90%
    02:00 +1°C° 0.1 mm 3 mps 745 mmHg 89%
    03:00 +1°C° 0.1 mm 3 mps 746 mmHg 88%
    04:00 +1°C° 0.1 mm 3 mps 746 mmHg 89%
    05:00 -1°C° 0.1 mm 4 mps 747 mmHg 89%
    06:00 -1°C° 0.1 mm 4 mps 747 mmHg 89%
    07:00 0°C° 0.2 mm 4 mps 748 mmHg 88%
    08:00 0°C° 0.2 mm 4 mps 748 mmHg 88%
    09:00 0°C° 0.2 mm 4 mps 749 mmHg 87%
    10:00 +1°C° 0.2 mm 5 mps 749 mmHg 84%
    11:00 +2°C° 0.2 mm 5 mps 750 mmHg 81%
    12:00 +2°C° 0.2 mm 5 mps 750 mmHg 78%
    13:00 +2°C° 0.3 mm 5 mps 750 mmHg 79%
    14:00 +2°C° 0.3 mm 5 mps 751 mmHg 80%
    15:00 +1°C° 0.3 mm 4 mps 751 mmHg 81%
    16:00 +1°C° 0.2 mm 4 mps 752 mmHg 83%
    17:00 0°C° 0.2 mm 4 mps 752 mmHg 85%
    18:00 0°C° 0.2 mm 4 mps 753 mmHg 86%
    19:00 0°C° 0.1 mm 4 mps 754 mmHg 87%
    20:00 -1°C° 0.1 mm 4 mps 754 mmHg 88%
    21:00 0°C° 0.1 mm 3 mps 755 mmHg 89%
    22:00 -1°C° 0.1 mm 4 mps 755 mmHg 89%
    23:00 -1°C° 0.1 mm 4 mps 755 mmHg 88%

    17 December, Sunday

    Time Temperature Precipitation Wind Pressure Humidity
    00:00 -1°C° 0.1 mm 4 mps 755 mmHg 88%
    01:00 0°C° 0.3 mm 4 mps 755 mmHg 89%
    02:00 0°C° 0.3 mm 4 mps 756 mmHg 90%
    03:00 0°C° 0.3 mm 4 mps 756 mmHg 90%
    04:00 +1°C° 0.2 mm 3 mps 756 mmHg 92%
    05:00 +1°C° 0.2 mm 3 mps 756 mmHg 93%
    06:00 +2°C° 0.2 mm 2 mps 757 mmHg 95%
    07:00 +2°C° 0 mm 2 mps 757 mmHg 94%
    08:00 +2°C° 0 mm 2 mps 758 mmHg 93%
    09:00 +2°C° 0 mm 2 mps 758 mmHg 92%
    10:00 +2°C° 0 mm 2 mps 759 mmHg 89%
    11:00 +3°C° 0 mm 2 mps 759 mmHg 87%
    12:00 +4°C° 0 mm 2 mps 759 mmHg 84%
    13:00 +4°C° 0 mm 2 mps 759 mmHg 85%
    14:00 +3°C° 0 mm 2 mps 760 mmHg 86%
    15:00 +3°C° 0 mm 2 mps 760 mmHg 87%
    16:00 +2°C° 0 mm 2 mps 760 mmHg 89%
    17:00 +2°C° 0 mm 2 mps 761 mmHg 90%
    18:00 +1°C° 0 mm 2 mps 761 mmHg 91%
    19:00 +1°C° 0 mm 2 mps 761 mmHg 92%
    20:00 0°C° 0 mm 3 mps 762 mmHg 92%
    21:00 0°C° 0 mm 3 mps 762 mmHg 93%
    22:00 0°C° 0 mm 3 mps 761 mmHg 92%
    23:00 -1°C° 0 mm 4 mps 761 mmHg 91%

    18 December, Monday

    Time Temperature Precipitation Wind Pressure Humidity
    00:00 -1°C° 0 mm 4 mps 761 mmHg 90%
    01:00 -1°C° 0.1 mm 5 mps 760 mmHg 89%
    02:00 -1°C° 0.1 mm 6 mps 760 mmHg 88%
    03:00 -1°C° 0.1 mm 6 mps 759 mmHg 88%
    04:00 0°C° 0.7 mm 7 mps 758 mmHg 89%
    05:00 0°C° 0.7 mm 7 mps 758 mmHg 90%
    06:00 +2°C° 0.7 mm 7 mps 757 mmHg 92%
    07:00 +3°C° 0.7 mm 7 mps 757 mmHg 93%
    08:00 +4°C° 0.7 mm 6 mps 757 mmHg 94%
    09:00 +5°C° 0.7 mm 5 mps 756 mmHg 96%
    10:00 +6°C° 0.2 mm 5 mps 756 mmHg 95%
    11:00 +7°C° 0.2 mm 5 mps 756 mmHg 93%
    12:00 +7°C° 0.2 mm 5 mps 756 mmHg 92%
    13:00 +7°C° 0.1 mm 5 mps 757 mmHg 92%
    14:00 +6°C° 0.1 mm 5 mps 757 mmHg 91%
    15:00 +6°C° 0.1 mm 4 mps 758 mmHg 91%
    16:00 +5°C° 0 mm 4 mps 758 mmHg 92%
    17:00 +4°C° 0 mm 3 mps 759 mmHg 92%
    18:00 +3°C° 0 mm 3 mps 760 mmHg 93%
    19:00 +3°C° 0 mm 3 mps 761 mmHg 93%
    20:00 +4°C° 0 mm 2 mps 761 mmHg 93%
    21:00 +3°C° 0 mm 2 mps 762 mmHg 93%
    22:00 +3°C° 0 mm 2 mps 762 mmHg 94%
    23:00 +3°C° 0 mm 2 mps 763 mmHg 94%
    Show more